Regional Weather Roundup
Issued by NWS

Home | Current Version | Previous Version | Graphics & Text | Print | Product List | Glossary On
Versions: 1 2 3 4 5 6 7 8 9 10 11 12 13 14 15 16 17 18 19 20 21 22 23 24 25 26 27 28 29 30 31 32 33 34 35 36 37 38 39 40 41 42 43 44 45 46 47 48 49 50
000
ASUS43 KFSD 221302
RWRSD

WEATHER ROUNDUP FOR SOUTH DAKOTA
NATIONAL WEATHER SERVICE SIOUX FALLS SD
700 AM CST THU FEB 22 2018

NOTE: "FAIR" INDICATES FEW OR NO CLOUDS BELOW 12,000 FEET WITH NO
SIGNIFICANT WEATHER AND/OR OBSTRUCTIONS TO VISIBILITY.


SDZ001>005-009-010-012>017-221400-
NORTHWEST AND NORTH CENTRAL SOUTH DAKOTA

CITY           SKY/WX    TMP DP  RH WIND       PRES   REMARKS
BUFFALO          N/A     -9 -15  75 SW6       30.05S WCI -22
FAITH            N/A     -9 -14  78 NW6       30.18F WCI -22
MOBRIDGE       FAIR      -6  -9  86 CALM      30.26S
$$

SDZ012>016-024>037-041>051-057-063-072>074-221400-
SOUTHWEST AND SOUTH CENTRAL SOUTH DAKOTA

CITY           SKY/WX    TMP DP  RH WIND       PRES   REMARKS
RAPID CTY ARPT FAIR      -3  -8  79 CALM      30.11S
PIERRE         FAIR       5   2  87 SE10      30.29S WCI -10
CUSTER         FAIR      12   4  70 S6        29.99R WCI   3
ELLSWORTH AFB  FAIR      -1  -5  83 N13       30.09F WCI -19
PHILIP         FAIR      -8 -11  86 W7        30.23R WCI -23
PINE RIDGE     MOCLDY    14   9  80 CALM      30.14R
SPEARFISH        N/A     10   1  67 CALM      30.07F
WINNER         FAIR      16  11  80 S13       30.29S WCI   2
$$

SDZ004>011-016>023-039-040-221400-
NORTHEAST SOUTH DAKOTA

CITY           SKY/WX    TMP DP  RH WIND       PRES   REMARKS
ABERDEEN       FAIR       2  -2  83 S7        30.39S WCI -11
WATERTOWN      MOCLDY     9   6  88 S10       30.39F WCI  -5
BROOKINGS      CLOUDY    12   8  84 SE6       30.43S WCI   3
SISSETON         N/A      2  -2  83 SE5       30.44F WCI  -8
$$

SDZ017-020-022-023-036>040-048>070-221400-
SOUTHEAST SOUTH DAKOTA

CITY           SKY/WX    TMP DP  RH WIND       PRES   REMARKS
SIOUX FALLS    LGT SNOW  17  13  84 E7        30.44F FOG     WCI   8
HURON          CLOUDY    16  10  77 SE10      30.39F WCI   4
CHAMBERLAIN    CLOUDY    16  13  87 E10       30.34S WCI   4
MITCHELL       CLOUDY    18  11  74 SE10      30.42S WCI   6
YANKTON        CLOUDY    18  14  84 E7        30.42F WCI   9
$$

ABBREVIATIONS USED IN REMARKS
   TC - TEMPERATURE IN CELSIUS
  WCI - WIND CHILL INDEX
   HX - HEAT INDEX
  VSB - VISIBILITY





USA.gov is the U.S. government's official web portal to all federal, state and local government web resources and services.